SCP
0 0 0 0 -0 -0 -0 0 0 0 0 0 0 0 0 0 0 0 -0 0 0 0 0 0 0 0 0 0 0 0 0 0 0 0 0 0 0 0 0 0 0 0 0 0
0 0 0 0 0 -0 -0 0 0 0 0 0 0 0 0 0 0 0 -0 0 0 0 0 0 0 0 0 0 0 0 0 0 0 0 0 0 0 0 0 0 0 0 0 0
0 0 0 0 0 -0 -0 0 0 0 0 0 0 0 0 0 0 0 0 -0 0 0 0 0 0 0 0 0 0 0 0 0 0 0 0 0 0 0 0 0 0 0 0 0
0 0 0 0 0 -0 -0 0 0 0 0 0 0 0 0 0 0 0 0 0 0 0 0 0 0 0 0 0 0 0 0 0 0 0 0 0 0 0 0 0 0 0 0 0
0 0 0 0 0 0 0 0 0 0 0 0 0 0 0 0 0 0 0 0 0 0 0 0 0 0 0 0 0 0 0 0 0 0 0 0 0 0 0 0 0 0 0 0
0 0 0 0 0 0 0 0 0 0 0 0 0 0 0 0 0 0 0 0 0 0 0 0 0 0 0 0 0 0 0 0 0 0 0 0 0 0 0 0 0 0 0 0
0 0 0 0 0 0 0 0 0 0 0 0 0 0 0 0 0 0 0 0 0 0 0 0 0 0 0 0 0 0 0 0 0 0 0 0 0 0 0 0 0 0 0 0
0 0 0 0 0 0 0 0 0 0 0 0 0 0 0 0 0 0 0 0 0 0 0 0 0 0 0 0 0 0 0 0 0 1 0 0 0 0 0 0 0 0 0 0
0 0 0 0 0 0 0 0 0 0 0 0 0 0 0 0 0 0 0 0 0 0 0 0 0 0 0 0 0 0 0 0 0 0 0 0 0 0 0 0 0 0 0 0
0 0 0 0 0 0 0 0 0 0 0 0 0 0 0 0 0 0 0 0 0 0 0 0 0 0 0 0 0 0 0 0 0 0 0 0 0 0 0 0 0 0 0 0
0 0 0 0 0 0 0 0 0 0 0 0 0 0 0 0 0 0 0 0 0 0 0 0 0 0 0 0 0 0 0 0 0 0 0 0 0 0 0 0 0 0 0 0
0 0 0 0 0 0 0 0 0 0 0 0 0 0 0 0 0 0 0 0 0 0 0 0 0 0 0 0 0 0 0 0 0 0 0 0 0 0 0 0 0 0 0 0
0 0 0 0 0 0 0 0 0 0 0 0 0 0 0 0 0 0 0 0 0 0 0 0 0 0 0 0 0 0 0 0 0 0 0 0 0 0 0 0 0 0 0 0
0 0 0 0 0 0 0 0 0 0 0 -0 0 0 0 0 0 0 0 0 0 0 0 0 0 0 0 0 0 0 0 0 0 0 0 0 0 0 0 0 0 0 0 0
0 0 0 0 0 0 0 0 0 0 0 0 0 0 0 0 0 0 0 0 0 0 0 0 0 0 0 0 0 0 0 0 0 0 0 0 0 0 0 0 0 0 0 0
0 0 0 0 0 0 0 0 0 0 0 -0 0 0 0 0 0 0 0 0 0 0 0 0 0 0 0 0 0 0 0 0 0 0 0 0 0 0 0 0 0 0 0 0
0 0 0 0 0 0 0 0 0 0 -0 -0 -0 0 0 0 0 0 0 0 0 0 0 0 0 0 0 0 0 0 0 0 0 0 0 0 0 0 0 0 0 0 0 0
0 0 0 0 0 0 0 0 0 0 0 0 0 0 0 0 0 0 0 0 0 0 0 0 0 0 0 0 0 0 0 0 0 0 0 0 0 0 0 0 0 0 0 0
0 0 0 0 0 0 0 0 0 0 0 0 0 0 0 0 0 0 0 0 0 0 0 0 0 0 0 0 0 0 0 0 0 0 0 0 0 0 0 0 0 0 0 0
0 0 0 0 0 0 0 0 0 0 0 0 0 0 0 0 0 0 0 0 0 0 0 0 0 0 0 0 0 0 0 0 0 0 0 0 0 0 0 0 0 0 0 0
0 0 0 0 0 0 0 0 0 0 0 0 0 0 0 0 0 0 0 0 0 0 0 0 0 0 0 0 0 0 0 0 0 0 0 0 0 0 0 0 0 0 0 0
0 0 0 0 0 0 0 0 0 0 0 0 0 0 0 0 0 0 0 0 0 0 0 0 0 0 0 0 0 0 0 0 0 0 0 0 0 0 0 0 0 0 0 0
0 0 0 0 0 0 0 0 0 0 -0 0 0 0 0 0 0 0 0 0 0 0 0 0 0 0 0 0 0 0 0 0 -0 0 0 0 0 0 0 0 0 0 0 0
0 0 0 0 0 0 -0 0 0 -0 0 0 0 0 0 0 0 0 0 0 0 0 0 0 0 0 0 0 0 0 0 0 0 0 0 0 0 0 0 0 0 0 0 0
-0 0 0 0 0 0 0 0 0 0 0 0 0 0 0 0 0 0 0 0 0 0 0 0 0 0 0 0 0 0 0 0 0 0 0 0 0 0 0 0 0 0 0 0
-0 0 0 0 0 0 0 0 0 0 0 0 -0 0 0 0 0 0 0 0 0 0 0 0 0 0 0 0 0 0 0 0 0 0 0 0 0 0 0 0 0 0 0 0
-0 0 0 0 0 0 0 0 0 0 0 -0 0 0 0 0 0 0 0 0 0 0 0 0 0 0 0 0 0 0 0 0 0 0 0 0 0 0 0 0 0 0 0 0
Wind_Speed_500mb
57 58 60 63 70 70 58 23 5 15 10 3 3 7 7 6 12 8 4 3 12 17 6 13 23 24 8 9 28 20 8 7 10 6 5 1 4 7 7 6 8 2 4 11
56 57 57 58 62 65 60 33 12 7 5 5 4 6 6 6 8 13 8 13 10 7 7 8 10 13 5 12 18 22 19 5 10 7 6 5 5 7 9 11 4 12 11 12
53 56 56 53 54 55 44 18 8 9 11 10 7 9 4 7 5 9 10 14 15 17 9 2 11 10 2 9 10 10 16 8 14 23 17 10 11 14 14 8 7 10 17 24
50 53 53 51 50 46 27 19 7 8 8 6 14 7 7 7 7 6 6 6 19 15 12 6 7 6 9 6 16 8 6 10 7 9 13 9 12 21 20 17 13 15 26 17
48 49 50 51 47 43 17 12 13 18 13 21 14 7 4 6 11 6 1 6 28 12 11 13 17 17 9 9 7 5 2 9 9 7 9 9 7 11 15 19 14 20 18 24
44 45 46 44 47 44 18 19 13 7 13 13 8 6 12 7 19 8 13 14 18 10 10 31 12 17 5 9 14 7 3 15 6 8 5 8 6 14 12 6 10 11 16 15
39 40 41 39 36 38 26 22 15 9 7 9 7 22 18 24 19 13 20 25 9 10 27 6 21 31 30 21 17 11 11 7 6 10 8 10 2 3 3 12 13 16 9 5
35 37 37 36 31 29 26 14 10 5 8 14 19 23 16 28 27 11 13 11 12 35 13 4 11 6 8 10 17 15 2 13 7 9 9 6 7 9 10 12 10 18 17 10
31 32 31 31 30 25 18 7 10 5 11 3 11 18 20 10 11 12 8 12 16 7 2 4 6 13 10 12 9 8 18 13 9 7 8 11 4 4 9 7 13 16 17 21
32 30 28 31 26 27 19 1 11 9 11 14 6 5 10 12 8 10 12 25 11 13 4 2 2 4 2 16 24 14 9 7 11 8 5 5 13 13 15 8 1 17 23 28
34 29 28 25 24 24 21 15 7 11 11 38 42 28 25 20 10 7 19 17 3 6 5 5 6 4 4 2 4 12 15 15 7 7 6 12 19 15 11 4 11 17 23 28
35 29 27 23 22 19 21 13 22 21 25 31 47 62 68 63 52 24 10 9 12 6 5 3 3 7 4 8 3 4 9 7 13 16 10 3 31 5 21 13 11 19 25 27
30 31 26 24 17 19 18 26 22 19 16 40 26 8 16 28 22 38 20 11 10 2 10 5 3 11 4 9 10 3 5 6 6 8 12 12 17 26 14 14 13 19 23 21
29 31 28 27 18 19 23 27 27 23 13 13 19 10 25 27 33 26 40 47 11 7 15 6 5 6 2 2 4 9 3 17 10 1 4 6 17 26 22 23 23 26 25 23
31 30 29 25 24 20 28 32 37 29 20 10 32 69 21 5 17 39 53 39 48 23 9 5 4 4 4 2 2 6 15 12 10 8 23 20 13 34 33 37 36 32 29 30
29 28 30 27 23 23 22 8 4 6 26 8 9 19 29 26 17 24 33 47 29 16 12 11 9 8 5 5 6 4 19 19 16 4 20 30 11 25 35 39 39 36 31 24
33 28 30 25 20 25 18 8 4 8 3 8 14 13 11 21 13 9 19 31 19 18 11 11 7 6 9 4 5 8 7 20 16 19 20 19 21 20 36 39 39 38 36 30
32 27 25 22 21 28 34 26 22 29 27 12 7 9 13 12 5 4 13 17 22 20 13 6 12 8 7 8 18 31 14 12 13 20 21 15 26 21 36 37 41 42 41 38
26 24 19 20 25 14 9 10 18 23 22 8 8 5 7 21 6 4 10 13 9 13 11 12 12 12 15 13 24 25 24 10 9 27 23 17 28 31 34 41 44 44 45 42
26 17 9 9 7 10 10 11 5 11 14 13 11 8 9 12 13 8 7 8 7 10 15 15 11 20 21 19 19 22 18 15 17 26 22 23 23 30 37 44 45 47 46 42
29 15 12 10 10 6 7 8 10 11 9 14 13 26 24 17 9 6 5 5 6 8 8 12 10 8 23 43 49 51 44 43 36 29 24 23 27 33 40 41 44 46 44 38
25 10 9 6 5 7 6 6 8 10 8 10 9 10 18 9 13 9 8 6 5 7 8 8 6 6 14 19 30 44 56 47 47 42 37 39 39 30 34 35 42 45 44 39
22 7 4 4 6 9 9 9 6 7 8 10 10 6 9 9 10 10 5 7 7 4 4 5 5 6 6 2 8 14 18 28 41 42 35 40 35 32 33 34 41 47 45 39
7 10 6 7 7 9 6 7 9 11 15 13 17 10 11 8 8 6 9 4 3 6 8 7 3 11 4 6 9 10 5 14 25 34 45 34 37 33 32 38 42 49 47 40
5 7 7 11 13 10 21 19 18 25 20 21 11 9 7 7 7 7 3 7 8 7 7 6 10 1 3 5 10 13 12 9 14 29 40 45 32 36 38 47 47 46 42 38
5 8 8 15 10 17 16 18 21 14 14 22 11 3 7 10 6 8 12 6 9 5 2 4 7 9 10 13 15 16 17 15 16 23 43 47 47 37 45 54 54 48 41 36
6 10 16 20 20 23 24 28 18 21 11 3 8 4 4 1 5 7 7 6 2 3 5 9 13 16 20 22 22 24 24 23 21 24 40 51 53 46 49 61 60 53 45 35
Wind_Direction_500mb
346 349 353 353 350 346 351 358 322 5 215 259 295 216 209 232 247 208 247 227 270 260 242 197 197 200 213 170 155 176 159 111 145 160 2 315 85 146 153 205 200 198 291 283
343 346 350 355 354 354 350 341 308 357 188 264 257 288 264 250 241 248 236 253 244 221 234 205 192 191 141 176 173 160 177 127 129 120 147 150 198 126 108 101 105 195 260 272
343 344 347 353 357 354 351 354 334 343 50 41 345 350 350 286 309 264 249 248 254 271 245 252 173 161 119 160 165 126 132 129 188 198 198 141 171 167 169 172 175 218 233 272
346 346 347 351 359 1 2 12 37 5 336 358 335 313 325 304 315 323 287 244 229 221 200 166 177 160 146 131 158 103 166 141 135 99 128 139 145 173 178 208 228 231 273 241
347 349 349 352 359 8 22 24 9 343 294 309 311 335 27 330 330 283 322 342 331 289 209 191 189 174 212 174 153 142 145 125 139 114 119 132 182 200 213 234 241 248 259 260
345 349 352 355 359 11 36 21 8 348 302 333 318 24 340 329 341 274 278 341 323 305 349 310 299 125 50 151 150 124 60 138 127 134 121 122 255 240 213 231 227 259 247 292
344 348 352 355 4 11 22 15 16 356 295 324 343 326 311 299 310 286 300 317 308 352 321 306 91 85 85 71 57 97 127 74 45 134 166 222 110 178 305 262 260 220 249 258
343 345 351 355 355 7 10 9 15 357 294 304 306 337 315 314 304 265 270 296 305 323 327 207 148 127 161 72 46 50 124 126 104 147 179 319 242 202 182 195 245 205 202 159
340 340 347 347 348 352 4 332 1 333 307 271 333 316 311 320 329 302 279 315 336 333 327 27 197 181 163 167 119 47 82 82 112 157 174 218 202 169 198 164 268 185 181 169
331 335 338 338 344 346 350 275 330 311 280 282 308 290 320 321 324 292 309 339 339 18 208 138 234 196 265 165 161 158 116 69 146 139 180 252 237 158 153 198 321 167 180 172
325 324 328 330 335 341 342 329 313 320 274 280 275 262 262 277 288 305 334 322 20 322 210 194 172 245 159 185 148 170 157 154 152 126 168 246 155 145 205 155 159 169 175 181
313 314 316 322 332 340 333 326 319 303 273 267 279 280 276 269 262 276 267 289 298 313 282 264 75 250 218 94 251 286 185 175 171 187 196 117 182 165 187 168 163 185 183 185
302 311 305 310 316 327 313 307 310 320 293 296 280 299 293 282 270 233 232 255 252 228 15 313 284 239 130 152 244 249 216 179 144 147 188 208 198 208 202 206 203 173 186 190
291 298 304 302 292 301 298 295 301 292 282 280 282 300 282 288 278 246 239 225 197 324 341 293 269 260 233 196 133 212 133 161 150 229 245 246 237 215 210 184 167 163 167 176
280 289 299 296 293 286 294 295 291 269 229 290 292 303 309 234 299 242 241 237 238 266 294 269 251 267 245 14 313 187 189 162 177 198 200 190 205 212 194 179 167 168 166 169
282 278 283 284 279 280 303 300 342 9 215 265 289 300 295 304 283 248 228 218 212 206 211 227 248 229 220 235 216 248 207 206 212 283 220 198 167 178 190 181 174 171 169 170
279 268 275 278 253 269 262 253 271 219 350 264 286 284 280 319 302 225 201 196 200 201 221 236 250 208 209 234 225 141 54 224 234 238 188 174 172 181 186 184 178 178 175 169
265 253 269 262 257 264 272 283 247 245 263 266 271 276 298 344 300 218 174 167 188 204 226 220 211 189 222 239 235 258 273 286 241 212 191 218 187 168 180 184 184 181 179 178
252 245 252 264 260 245 236 270 262 229 212 261 239 269 302 343 334 290 191 180 177 191 214 211 189 199 222 197 205 225 245 244 274 207 214 182 179 184 186 188 188 190 186 186
230 206 216 234 211 194 272 218 195 184 211 232 250 235 259 334 344 323 309 205 225 188 201 170 221 232 228 214 207 220 257 294 250 180 193 185 189 197 198 200 200 198 195 189
188 178 210 191 206 251 227 217 197 192 231 220 243 240 245 266 259 292 269 300 256 222 162 202 200 223 219 228 240 253 250 261 257 233 239 237 240 218 204 200 197 195 195 189
174 179 183 199 203 228 249 219 183 215 239 208 211 231 207 228 212 232 231 265 275 229 139 204 207 224 199 211 232 244 246 253 252 246 248 243 234 219 213 209 197 189 189 186
155 174 160 173 191 237 235 213 197 225 211 212 214 218 200 198 209 239 246 238 247 295 213 230 230 131 129 150 262 260 257 240 243 239 246 229 223 217 215 204 191 186 185 185
153 160 190 236 189 234 246 271 306 299 284 266 266 257 204 192 187 232 237 186 197 211 198 224 134 151 89 46 24 10 281 227 223 226 224 220 223 225 205 194 185 184 184 186
153 168 223 228 241 243 245 268 269 276 271 282 267 228 213 187 244 210 283 213 230 229 195 192 149 220 330 333 347 354 350 282 234 206 213 218 221 213 197 182 178 181 183 187
211 224 245 241 267 263 266 280 289 318 295 312 215 213 197 214 226 201 218 232 219 169 140 141 309 306 299 300 310 317 323 320 267 229 210 212 218 203 192 176 176 178 182 184
240 246 242 256 278 279 283 295 291 315 304 318 279 225 215 125 220 231 207 243 8 21 307 301 308 307 307 309 301 306 299 306 287 250 214 205 205 193 187 176 179 180 181 182
Wind_Speed_850mb
57 58 60 63 70 70 58 23 5 15 10 3 3 7 7 6 12 8 4 3 12 17 6 13 23 24 8 9 28 20 8 7 10 6 5 1 4 7 7 6 8 2 4 11
56 57 57 58 62 65 60 33 12 7 5 5 4 6 6 6 8 13 8 13 10 7 7 8 10 13 5 12 18 22 19 5 10 7 6 5 5 7 9 11 4 12 11 12
53 56 56 53 54 55 44 18 8 9 11 10 7 9 4 7 5 9 10 14 15 17 9 2 11 10 2 9 10 10 16 8 14 23 17 10 11 14 14 8 7 10 17 24
50 53 53 51 50 46 27 19 7 8 8 6 14 7 7 7 7 6 6 6 19 15 12 6 7 6 9 6 16 8 6 10 7 9 13 9 12 21 20 17 13 15 26 17
48 49 50 51 47 43 17 12 13 18 13 21 14 7 4 6 11 6 1 6 28 12 11 13 17 17 9 9 7 5 2 9 9 7 9 9 7 11 15 19 14 20 18 24
44 45 46 44 47 44 18 19 13 7 13 13 8 6 12 7 19 8 13 14 18 10 10 31 12 17 5 9 14 7 3 15 6 8 5 8 6 14 12 6 10 11 16 15
39 40 41 39 36 38 26 22 15 9 7 9 7 22 18 24 19 13 20 25 9 10 27 6 21 31 30 21 17 11 11 7 6 10 8 10 2 3 3 12 13 16 9 5
35 37 37 36 31 29 26 14 10 5 8 14 19 23 16 28 27 11 13 11 12 35 13 4 11 6 8 10 17 15 2 13 7 9 9 6 7 9 10 12 10 18 17 10
31 32 31 31 30 25 18 7 10 5 11 3 11 18 20 10 11 12 8 12 16 7 2 4 6 13 10 12 9 8 18 13 9 7 8 11 4 4 9 7 13 16 17 21
32 30 28 31 26 27 19 1 11 9 11 14 6 5 10 12 8 10 12 25 11 13 4 2 2 4 2 16 24 14 9 7 11 8 5 5 13 13 15 8 1 17 23 28
34 29 28 25 24 24 21 15 7 11 11 38 42 28 25 20 10 7 19 17 3 6 5 5 6 4 4 2 4 12 15 15 7 7 6 12 19 15 11 4 11 17 23 28
35 29 27 23 22 19 21 13 22 21 25 31 47 62 68 63 52 24 10 9 12 6 5 3 3 7 4 8 3 4 9 7 13 16 10 3 31 5 21 13 11 19 25 27
30 31 26 24 17 19 18 26 22 19 16 40 26 8 16 28 22 38 20 11 10 2 10 5 3 11 4 9 10 3 5 6 6 8 12 12 17 26 14 14 13 19 23 21
29 31 28 27 18 19 23 27 27 23 13 13 19 10 25 27 33 26 40 47 11 7 15 6 5 6 2 2 4 9 3 17 10 1 4 6 17 26 22 23 23 26 25 23
31 30 29 25 24 20 28 32 37 29 20 10 32 69 21 5 17 39 53 39 48 23 9 5 4 4 4 2 2 6 15 12 10 8 23 20 13 34 33 37 36 32 29 30
29 28 30 27 23 23 22 8 4 6 26 8 9 19 29 26 17 24 33 47 29 16 12 11 9 8 5 5 6 4 19 19 16 4 20 30 11 25 35 39 39 36 31 24
33 28 30 25 20 25 18 8 4 8 3 8 14 13 11 21 13 9 19 31 19 18 11 11 7 6 9 4 5 8 7 20 16 19 20 19 21 20 36 39 39 38 36 30
32 27 25 22 21 28 34 26 22 29 27 12 7 9 13 12 5 4 13 17 22 20 13 6 12 8 7 8 18 31 14 12 13 20 21 15 26 21 36 37 41 42 41 38
26 24 19 20 25 14 9 10 18 23 22 8 8 5 7 21 6 4 10 13 9 13 11 12 12 12 15 13 24 25 24 10 9 27 23 17 28 31 34 41 44 44 45 42
26 17 9 9 7 10 10 11 5 11 14 13 11 8 9 12 13 8 7 8 7 10 15 15 11 20 21 19 19 22 18 15 17 26 22 23 23 30 37 44 45 47 46 42
29 15 12 10 10 6 7 8 10 11 9 14 13 26 24 17 9 6 5 5 6 8 8 12 10 8 23 43 49 51 44 43 36 29 24 23 27 33 40 41 44 46 44 38
25 10 9 6 5 7 6 6 8 10 8 10 9 10 18 9 13 9 8 6 5 7 8 8 6 6 14 19 30 44 56 47 47 42 37 39 39 30 34 35 42 45 44 39
22 7 4 4 6 9 9 9 6 7 8 10 10 6 9 9 10 10 5 7 7 4 4 5 5 6 6 2 8 14 18 28 41 42 35 40 35 32 33 34 41 47 45 39
7 10 6 7 7 9 6 7 9 11 15 13 17 10 11 8 8 6 9 4 3 6 8 7 3 11 4 6 9 10 5 14 25 34 45 34 37 33 32 38 42 49 47 40
5 7 7 11 13 10 21 19 18 25 20 21 11 9 7 7 7 7 3 7 8 7 7 6 10 1 3 5 10 13 12 9 14 29 40 45 32 36 38 47 47 46 42 38
5 8 8 15 10 17 16 18 21 14 14 22 11 3 7 10 6 8 12 6 9 5 2 4 7 9 10 13 15 16 17 15 16 23 43 47 47 37 45 54 54 48 41 36
6 10 16 20 20 23 24 28 18 21 11 3 8 4 4 1 5 7 7 6 2 3 5 9 13 16 20 22 22 24 24 23 21 24 40 51 53 46 49 61 60 53 45 35
Wind_Direction_850mb
346 349 353 353 350 346 351 358 322 5 215 259 295 216 209 232 247 208 247 227 270 260 242 197 197 200 213 170 155 176 159 111 145 160 2 315 85 146 153 205 200 198 291 283
343 346 350 355 354 354 350 341 308 357 188 264 257 288 264 250 241 248 236 253 244 221 234 205 192 191 141 176 173 160 177 127 129 120 147 150 198 126 108 101 105 195 260 272
343 344 347 353 357 354 351 354 334 343 50 41 345 350 350 286 309 264 249 248 254 271 245 252 173 161 119 160 165 126 132 129 188 198 198 141 171 167 169 172 175 218 233 272
346 346 347 351 359 1 2 12 37 5 336 358 335 313 325 304 315 323 287 244 229 221 200 166 177 160 146 131 158 103 166 141 135 99 128 139 145 173 178 208 228 231 273 241
347 349 349 352 359 8 22 24 9 343 294 309 311 335 27 330 330 283 322 342 331 289 209 191 189 174 212 174 153 142 145 125 139 114 119 132 182 200 213 234 241 248 259 260
345 349 352 355 359 11 36 21 8 348 302 333 318 24 340 329 341 274 278 341 323 305 349 310 299 125 50 151 150 124 60 138 127 134 121 122 255 240 213 231 227 259 247 292
344 348 352 355 4 11 22 15 16 356 295 324 343 326 311 299 310 286 300 317 308 352 321 306 91 85 85 71 57 97 127 74 45 134 166 222 110 178 305 262 260 220 249 258
343 345 351 355 355 7 10 9 15 357 294 304 306 337 315 314 304 265 270 296 305 323 327 207 148 127 161 72 46 50 124 126 104 147 179 319 242 202 182 195 245 205 202 159
340 340 347 347 348 352 4 332 1 333 307 271 333 316 311 320 329 302 279 315 336 333 327 27 197 181 163 167 119 47 82 82 112 157 174 218 202 169 198 164 268 185 181 169
331 335 338 338 344 346 350 275 330 311 280 282 308 290 320 321 324 292 309 339 339 18 208 138 234 196 265 165 161 158 116 69 146 139 180 252 237 158 153 198 321 167 180 172
325 324 328 330 335 341 342 329 313 320 274 280 275 262 262 277 288 305 334 322 20 322 210 194 172 245 159 185 148 170 157 154 152 126 168 246 155 145 205 155 159 169 175 181
313 314 316 322 332 340 333 326 319 303 273 267 279 280 276 269 262 276 267 289 298 313 282 264 75 250 218 94 251 286 185 175 171 187 196 117 182 165 187 168 163 185 183 185
302 311 305 310 316 327 313 307 310 320 293 296 280 299 293 282 270 233 232 255 252 228 15 313 284 239 130 152 244 249 216 179 144 147 188 208 198 208 202 206 203 173 186 190
291 298 304 302 292 301 298 295 301 292 282 280 282 300 282 288 278 246 239 225 197 324 341 293 269 260 233 196 133 212 133 161 150 229 245 246 237 215 210 184 167 163 167 176
280 289 299 296 293 286 294 295 291 269 229 290 292 303 309 234 299 242 241 237 238 266 294 269 251 267 245 14 313 187 189 162 177 198 200 190 205 212 194 179 167 168 166 169
282 278 283 284 279 280 303 300 342 9 215 265 289 300 295 304 283 248 228 218 212 206 211 227 248 229 220 235 216 248 207 206 212 283 220 198 167 178 190 181 174 171 169 170
279 268 275 278 253 269 262 253 271 219 350 264 286 284 280 319 302 225 201 196 200 201 221 236 250 208 209 234 225 141 54 224 234 238 188 174 172 181 186 184 178 178 175 169
265 253 269 262 257 264 272 283 247 245 263 266 271 276 298 344 300 218 174 167 188 204 226 220 211 189 222 239 235 258 273 286 241 212 191 218 187 168 180 184 184 181 179 178
252 245 252 264 260 245 236 270 262 229 212 261 239 269 302 343 334 290 191 180 177 191 214 211 189 199 222 197 205 225 245 244 274 207 214 182 179 184 186 188 188 190 186 186
230 206 216 234 211 194 272 218 195 184 211 232 250 235 259 334 344 323 309 205 225 188 201 170 221 232 228 214 207 220 257 294 250 180 193 185 189 197 198 200 200 198 195 189
188 178 210 191 206 251 227 217 197 192 231 220 243 240 245 266 259 292 269 300 256 222 162 202 200 223 219 228 240 253 250 261 257 233 239 237 240 218 204 200 197 195 195 189
174 179 183 199 203 228 249 219 183 215 239 208 211 231 207 228 212 232 231 265 275 229 139 204 207 224 199 211 232 244 246 253 252 246 248 243 234 219 213 209 197 189 189 186
155 174 160 173 191 237 235 213 197 225 211 212 214 218 200 198 209 239 246 238 247 295 213 230 230 131 129 150 262 260 257 240 243 239 246 229 223 217 215 204 191 186 185 185
153 160 190 236 189 234 246 271 306 299 284 266 266 257 204 192 187 232 237 186 197 211 198 224 134 151 89 46 24 10 281 227 223 226 224 220 223 225 205 194 185 184 184 186
153 168 223 228 241 243 245 268 269 276 271 282 267 228 213 187 244 210 283 213 230 229 195 192 149 220 330 333 347 354 350 282 234 206 213 218 221 213 197 182 178 181 183 187
211 224 245 241 267 263 266 280 289 318 295 312 215 213 197 214 226 201 218 232 219 169 140 141 309 306 299 300 310 317 323 320 267 229 210 212 218 203 192 176 176 178 182 184
240 246 242 256 278 279 283 295 291 315 304 318 279 225 215 125 220 231 207 243 8 21 307 301 308 307 307 309 301 306 299 306 287 250 214 205 205 193 187 176 179 180 181 182